[[{"header":{"parameterUnit":"m.s-1","parameterCategory":1,"la1":30.2991,"la2":30.254,"lo1":-89.0895,"lo2":-89.0444,"dy":0.0017,"dx":0.0017,"nx":28,"ny":28,"refTime":"2024-07-14T21:00:00:Z","depth":0,"parameterNumber":2,"parameterNumberName":"U-component_of_WINDS"},"data":[0,0,0,0,0,0,0,0,0,0,0,0,0,0,0,0,0,0,0,0,0,0,0,0,0,0,0,0,0,0,0,0,0,0,0,0,0,0,0,0,0,0,0,0,0,0,0,0,0,0,0,0,0,0,0,0,0,0,0.5356,0.5357,0,0.5467,0.5469,0.547,0.5559,0.556,0.5561,0.5561,0.5677,0.5679,0.5681,0,0,0,0,0,0,0,0,0,0,0,0,0,0.5223,0.5225,0.5356,0.5358,0.5359,0.5467,0.5469,0.547,0.5559,0.556,0.5561,0.5562,0.5676,0.5679,0.5681,0,0,0,0,0,0,0,0,0,0,0,0,0,0.5302,0.5225,0.5356,0.5416,0.5423,0.5467,0.5469,0.5471,0.5558,0.556,0.5561,0.5562,0.5675,0.5678,0.5682,0.5676,0,0,0.5692,0.5693,0,0,0,0,0,0,0,0,0.5297,0.5307,0.5406,0.5412,0.5419,0.5501,0.5464,0.5539,0.5558,0.5507,0.5561,0.5563,0.5617,0.5625,0.5643,0.5681,0.5686,0.5692,0.5694,0.5696,0.5697,0,0,0,0,0,0,0,0.5292,0.5302,0.54,0.5407,0.5415,0.5438,0.5451,0.5479,0.5553,0.5511,0.5518,0.553,0.5621,0.564,0.5647,0.5688,0.5692,0.5695,0.5697,0.5699,0.5727,0.5726,0,0,0,0,0,0,0.5277,0.5297,0.5397,0.5404,0.536,0.5439,0.5454,0.5473,0.5553,0.5567,0.5529,0.5534,0.5633,0.5643,0.5651,0.5649,0.5696,0.5699,0.5701,0.5728,0.5727,0.5725,0,0,0,0,0,0,0.5273,0.5285,0.5392,0.5352,0.5368,0.544,0.5461,0.5475,0.5493,0.5566,0.558,0.5534,0.5635,0.5646,0.5669,0.5654,0.57,0.5703,0.573,0.5728,0.5726,0.5645,0,0,0,0,0,0,0.5269,0.5283,0.5281,0.5352,0.5369,0.5407,0.5461,0.5476,0.5499,0.5506,0.5575,0.5587,0.5637,0.5663,0.5672,0.566,0.5706,0.5731,0.5729,0.5726,0.5649,0.5641,0.5633,0,0,0,0,0,0.5264,0.5254,0.528,0.5292,0.5368,0.5406,0.5417,0.5473,0.5497,0.5496,0.5543,0.5585,0.5655,0.5665,0.5676,0.5664,0.5732,0.5729,0.5727,0.5653,0.5642,0.5633,0,0,0,0,0,0,0.5179,0.5264,0.5294,0.5306,0.5348,0.5421,0.5421,0.546,0.5496,0.5502,0.5571,0.5586,0.5601,0.5635,0.5645,0.5663,0.5699,0.5698,0.5639,0.563,0.5622,0.5613,0.5709,0,0,0,0,0,0.5162,0.5185,0.5259,0.5262,0.5282,0.5347,0.5366,0.5406,0.5453,0.5471,0.552,0.5563,0.5595,0.5615,0.5648,0.5655,0.5671,0.5653,0.5645,0.5638,0.5636,0.5642,0.5634,0.5716,0.5716,0.5716,0,0,0.5127,0.5176,0.5186,0.5246,0.5284,0.5307,0.5362,0.5384,0.5402,0.5475,0.5498,0.5536,0.559,0.5604,0.5613,0.5633,0.5617,0.5634,0.5628,0.563,0.5638,0.563,0.5623,0.5714,0.5714,0.5715,0,0,0.5073,0.5113,0.5121,0.5157,0.5212,0.5257,0.5258,0.5325,0.5353,0.5378,0.5433,0.5456,0.5509,0.5545,0.5571,0.5532,0.5572,0.5541,0.5499,0.5504,0.5497,0.5492,0.5478,0.5472,0.5539,0.5539,0.5539,0,0.5022,0.5058,0.512,0.5138,0.5163,0.523,0.5239,0.5271,0.5335,0.5351,0.5372,0.5441,0.5482,0.5506,0.5496,0.5515,0.5519,0.5533,0.5493,0.5489,0.5484,0.5472,0.5466,0.5535,0.5536,0.5536,0.5536,0,0.4993,0.5017,0.5017,0.5076,0.5101,0.5114,0.5178,0.5196,0.5235,0.5276,0.5302,0.5353,0.5398,0.5407,0.5445,0.5437,0.5447,0.548,0.5518,0.5471,0.546,0.5456,0.5529,0.5531,0.5532,0.5533,0,0,0.4887,0.4981,0.498,0.5008,0.5075,0.5095,0.5112,0.5156,0.517,0.5212,0.5228,0.5272,0.5303,0.5332,0.5375,0.5379,0.5345,0.5412,0.5414,0.5397,0.5339,0.5312,0.5305,0.5373,0.5372,0.5371,0.5334,0,0.4844,0.4877,0.4933,0.4949,0.4972,0.5037,0.5052,0.5095,0.5135,0.5161,0.5206,0.5235,0.5275,0.5292,0.53,0.5347,0.5334,0.5351,0.5388,0.5388,0.5371,0.53,0.5272,0.5234,0.533,0.5329,0.5329,0,0.4798,0.4836,0.4853,0.4919,0.4931,0.4943,0.4988,0.5012,0.5062,0.5091,0.5123,0.517,0.5192,0.5227,0.5258,0.5268,0.5287,0.5313,0.5313,0.5317,0.5355,0.5302,0.5223,0.5217,0.5323,0.5323,0.5324,0,0.4718,0.4774,0.4792,0.4814,0.4891,0.4898,0.4931,0.4983,0.5005,0.5045,0.5061,0.5102,0.5125,0.5156,0.5213,0.5233,0.5238,0.5278,0.5262,0.5261,0.5259,0.5258,0.5181,0.5273,0.5273,0.5273,0.5273,0,0.4663,0.467,0.4757,0.4767,0.4778,0.4843,0.4853,0.4892,0.4937,0.4957,0.5017,0.5034,0.5109,0.5135,0.518,0.5198,0.5209,0.5232,0.5244,0.5226,0.5223,0.5239,0.5242,0.5272,0.5272,0.5272,0.5272,0,0.4575,0.4633,0.4656,0.4728,0.4746,0.4751,0.4813,0.4826,0.487,0.4894,0.4904,0.4973,0.5007,0.5067,0.5119,0.5149,0.5158,0.5179,0.5141,0.5148,0.5128,0.5129,0.5058,0.5052,0.5147,0.5146,0.5146,0,0.4535,0.4543,0.4615,0.4633,0.4663,0.469,0.4714,0.4779,0.4801,0.486,0.4866,0.4905,0.4939,0.499,0.5045,0.5085,0.5107,0.5079,0.5113,0.5095,0.5105,0.5103,0.5104,0.5071,0.5069,0.5068,0.5067,0,0.4458,0.4487,0.4518,0.456,0.4587,0.4623,0.4662,0.4673,0.4747,0.4769,0.4805,0.4831,0.4884,0.4921,0.4969,0.5004,0.5047,0.5057,0.5055,0.5036,0.5013,0.5024,0.5118,0.5058,0.5059,0.5059,0.506,0.506,0.4392,0.4402,0.4455,0.4488,0.4525,0.456,0.4576,0.4623,0.4653,0.4701,0.4738,0.477,0.4822,0.489,0.4922,0.4949,0.4969,0.4967,0.4966,0.4964,0.4957,0.501,0.4958,0.4959,0.4959,0.4959,0.4959,0,0.4318,0.4355,0.4385,0.4438,0.4465,0.4505,0.455,0.457,0.4597,0.4642,0.4674,0.4715,0.4752,0.481,0.4852,0.4862,0.4884,0.4871,0.487,0.4877,0.4937,0.4934,0.4853,0.4853,0.4853,0.4853,0.4853,0.4853,0.4282,0.43,0.4335,0.4373,0.4411,0.4443,0.4465,0.4499,0.4534,0.4577,0.4608,0.4646,0.4696,0.4742,0.4778,0.4794,0.4806,0.4787,0.4809,0.4864,0.4873,0.4883,0.488,0.479,0.479,0.4748,0.4748,0.4747]},{"header":{"parameterUnit":"m.s-1","parameterCategory":1,"la1":30.2991,"la2":30.254,"lo1":-89.0895,"lo2":-89.0444,"dy":0.0017,"dx":0.0017,"nx":28,"ny":28,"refTime":"2024-07-14T21:00:00:Z","depth":0,"parameterNumber":3,"parameterNumberName":"V-component_of_WINDS"},"data":[0,0,0,0,0,0,0,0,0,0,0,0,0,0,0,0,0,0,0,0,0,0,0,0,0,0,0,0,0,0,0,0,0,0,0,0,0,0,0,0,0,0,0,0,0,0,0,0,0,0,0,0,0,0,0,0,0,0,4.5651,4.5651,0,4.5638,4.5638,4.5638,4.5624,4.5624,4.5624,4.5624,4.561,4.561,4.561,0,0,0,0,0,0,0,0,0,0,0,0,0,4.5663,4.5663,4.5651,4.5651,4.5651,4.5638,4.5638,4.5638,4.5624,4.5624,4.5624,4.5624,4.561,4.561,4.561,0,0,0,0,0,0,0,0,0,0,0,0,0,4.5655,4.5663,4.5651,4.5642,4.5642,4.5638,4.5638,4.5638,4.5624,4.5624,4.5624,4.5624,4.561,4.561,4.561,4.5614,0,0,4.5609,4.5609,0,0,0,0,0,0,0,0,4.5655,4.5654,4.5644,4.5643,4.5642,4.5633,4.5637,4.563,4.5624,4.5631,4.5624,4.5623,4.5618,4.5617,4.5615,4.5613,4.5612,4.5609,4.5609,4.5608,4.5608,0,0,0,0,0,0,0,4.5656,4.5655,4.5646,4.5644,4.5643,4.5639,4.5638,4.5636,4.5626,4.563,4.5629,4.5628,4.5617,4.5615,4.5615,4.5612,4.5609,4.5608,4.5608,4.5608,4.5612,4.5612,0,0,0,0,0,0,4.5658,4.5655,4.5646,4.5646,4.5648,4.5639,4.5637,4.5636,4.5626,4.5624,4.5628,4.5627,4.5616,4.5615,4.5614,4.5618,4.5608,4.5608,4.5608,4.5612,4.5612,4.5612,0,0,0,0,0,0,4.5658,4.5657,4.5647,4.565,4.5649,4.5639,4.5638,4.5636,4.5634,4.5624,4.5623,4.5628,4.5616,4.5614,4.5614,4.5617,4.5608,4.5608,4.5612,4.5612,4.5612,4.5625,0,0,0,0,0,0,4.5659,4.5657,4.5659,4.565,4.5648,4.5647,4.5638,4.5636,4.5634,4.5632,4.5624,4.5622,4.5615,4.5614,4.5613,4.5616,4.5608,4.5611,4.5612,4.5612,4.5624,4.5626,4.5627,0,0,0,0,0,4.5659,4.5663,4.5659,4.5658,4.565,4.5647,4.5646,4.5638,4.5634,4.5635,4.5629,4.5623,4.5617,4.5614,4.5613,4.5616,4.5611,4.5612,4.5612,4.5624,4.5626,4.5627,0,0,0,0,0,0,4.5672,4.5662,4.5657,4.5659,4.5654,4.5645,4.5646,4.5641,4.5637,4.5636,4.5626,4.5624,4.5625,4.562,4.5618,4.5619,4.5613,4.5613,4.5622,4.5624,4.5625,4.5626,4.5607,0,0,0,0,0,4.5675,4.5674,4.5665,4.5667,4.5665,4.5656,4.5654,4.5649,4.5643,4.5641,4.5635,4.563,4.5627,4.5625,4.5622,4.5624,4.5621,4.5625,4.5627,4.5628,4.5628,4.5628,4.563,4.5615,4.5615,4.5614,0,0,4.5681,4.5675,4.5675,4.5669,4.5665,4.5663,4.5654,4.5653,4.5652,4.5641,4.564,4.5635,4.5629,4.5629,4.5629,4.5626,4.5632,4.5629,4.563,4.5629,4.5629,4.5631,4.5632,4.5615,4.5615,4.5615,0,0,4.5691,4.5687,4.5688,4.5684,4.5678,4.5672,4.5672,4.5664,4.5661,4.566,4.5651,4.5649,4.5645,4.564,4.5637,4.5646,4.564,4.5645,4.5653,4.5653,4.5654,4.5655,4.5658,4.5659,4.5646,4.5646,4.5646,0,4.57,4.5697,4.5689,4.5689,4.5686,4.5677,4.5677,4.5674,4.5667,4.5665,4.5661,4.5655,4.565,4.5649,4.5651,4.5649,4.5649,4.5646,4.5655,4.5656,4.5656,4.5659,4.566,4.5647,4.5647,4.5646,4.5646,0,4.5708,4.5706,4.5708,4.5701,4.5699,4.5699,4.5691,4.5689,4.5684,4.5678,4.5677,4.5671,4.5666,4.5665,4.566,4.5664,4.5662,4.5657,4.565,4.5659,4.5661,4.5662,4.5648,4.5647,4.5647,4.5647,0,0,4.5726,4.5715,4.5715,4.5712,4.5705,4.5703,4.5703,4.5698,4.5697,4.5692,4.5691,4.5687,4.5682,4.5679,4.5673,4.5674,4.568,4.5668,4.5668,4.567,4.5683,4.5687,4.5688,4.5676,4.5676,4.5677,4.5684,0,4.5734,4.5733,4.5726,4.5726,4.5724,4.5715,4.5715,4.571,4.5705,4.5702,4.5697,4.5694,4.5688,4.5686,4.5686,4.568,4.5683,4.5679,4.5675,4.5675,4.5676,4.5689,4.5693,4.57,4.5684,4.5684,4.5685,0,4.5744,4.574,4.5741,4.5733,4.5732,4.5732,4.5727,4.5725,4.5719,4.5715,4.5711,4.5705,4.5703,4.5698,4.5695,4.5693,4.5691,4.5687,4.5687,4.5686,4.568,4.5688,4.5702,4.5703,4.5686,4.5686,4.5686,0,4.5756,4.5751,4.5751,4.5748,4.5739,4.5739,4.5736,4.5729,4.5727,4.5723,4.5721,4.5717,4.5714,4.5711,4.5703,4.5699,4.5701,4.5695,4.5698,4.5698,4.5698,4.5698,4.5711,4.5697,4.5697,4.5697,4.5697,0,4.5766,4.5767,4.5756,4.5756,4.5756,4.5748,4.5748,4.5743,4.5738,4.5736,4.5728,4.5727,4.5717,4.5714,4.5708,4.5707,4.5706,4.5703,4.5701,4.5703,4.5703,4.5701,4.57,4.5698,4.5698,4.5698,4.5697,0,4.578,4.5773,4.5772,4.5763,4.5761,4.5762,4.5754,4.5754,4.5748,4.5746,4.5745,4.5736,4.5733,4.5725,4.5719,4.5715,4.5715,4.5712,4.5717,4.5716,4.5719,4.5719,4.5731,4.5732,4.5718,4.5718,4.5718,0,4.5787,4.5787,4.5778,4.5777,4.5774,4.5771,4.5769,4.5761,4.5758,4.5752,4.5751,4.5747,4.5744,4.5738,4.5731,4.5726,4.5723,4.5728,4.5722,4.5725,4.5723,4.5723,4.5723,4.5729,4.5729,4.5729,4.573,0,4.5799,4.5795,4.5792,4.5788,4.5786,4.5782,4.5778,4.5777,4.5767,4.5765,4.5762,4.5759,4.5753,4.5749,4.5743,4.5739,4.5732,4.5731,4.5732,4.5734,4.5736,4.5735,4.572,4.5731,4.5731,4.5731,4.5731,4.5731,4.5809,4.5809,4.5803,4.58,4.5796,4.5792,4.5791,4.5785,4.5782,4.5777,4.5772,4.5769,4.5763,4.5754,4.575,4.5747,4.5744,4.5745,4.5745,4.5745,4.5746,4.5737,4.5746,4.5746,4.5746,4.5746,4.5746,0,4.5821,4.5816,4.5814,4.5808,4.5806,4.58,4.5795,4.5793,4.5791,4.5786,4.5782,4.5778,4.5774,4.5766,4.5761,4.576,4.5757,4.5759,4.5759,4.5758,4.5749,4.5749,4.5762,4.5762,4.5762,4.5762,4.5762,4.5762,4.5826,4.5825,4.5821,4.5818,4.5814,4.5811,4.5808,4.5805,4.5801,4.5796,4.5793,4.5788,4.5782,4.5777,4.5773,4.577,4.5769,4.5772,4.5769,4.576,4.5759,4.5757,4.5757,4.5771,4.5771,4.5778,4.5778,4.5778]}]]